Location: Zagreb
(45.8000°N, 16.0000°E)
Time: 11:23:33
(UTC+02:00)

Courier 1B - Visible Passes

Search period start: 16 June 2025 00:00
Search period end: 26 June 2025 00:00
Orbit: 962 x 1208 km, 28.3° (Epoch: 15 June)

Date Brightness Start Highest point End Pass type
(mag) Time Alt. Az. Time Alt. Az. Time Alt. Az.
16 Jun 9.4 02:11:41 11° SE 02:11:41 11° SE 02:12:14 10° SE visible
16 Jun 9.1 03:58:34 11° SW 04:01:09 14° S 04:04:29 10° SSE visible
17 Jun 9.0 03:08:25 15° S 03:08:25 15° S 03:11:14 10° SSE visible
18 Jun 9.2 04:05:55 10° SSW 04:06:47 10° SSW 04:07:40 10° S visible
21 Jun 9.1 22:36:43 10° SSW 22:38:56 14° S 22:38:56 14° S visible
22 Jun 9.2 21:43:46 10° S 21:46:24 12° SSE 21:48:55 10° SE visible
22 Jun 9.4 23:35:18 10° SW 23:35:50 11° SSW 23:35:50 11° SSW visible
23 Jun 8.9 22:41:43 10° SSW 22:45:37 16° S 22:45:37 16° S visible
24 Jun 9.1 21:48:15 10° SSW 21:52:04 16° S 21:55:16 11° SE visible
24 Jun 9.4 23:41:10 10° SW 23:42:09 12° SW 23:42:09 12° SW visible
25 Jun 8.9 22:47:17 10° SW 22:51:19 17° S 22:51:40 17° S visible
